Regional Weather Roundup
Issued by NWS

Home | Current Version | Previous Version | Graphics & Text | Print | Product List | Glossary Off
Versions: 1 2 3 4 5 6 7 8 9 10 11 12 13 14 15 16 17 18 19 20 21 22 23 24 25 26 27 28 29 30 31 32 33 34 35 36 37 38 39 40 41 42 43 44 45 46 47 48 49 50

000
ASUS43 KMKX 271559
RWRWI

WISCONSIN REGIONAL WEATHER ROUNDUP
NATIONAL WEATHER SERVICE MILWAUKEE/SULLIVAN WI
1000 AM CST TUE JAN 27 2015

NOTE: "FAIR" INDICATES FEW OR NO CLOUDS BELOW 12,000 FEET WITH NO
SIGNIFICANT WEATHER AND/OR OBSTRUCTIONS TO VISIBILITY.

WIZ001-002-006>008-014>016-023>028-271700-
NORTHWEST WISCONSIN

CITY           SKY/WX    TMP DP  RH WIND       PRES   REMARKS
SUPERIOR ARPT  CLOUDY    28  24  84 CALM      30.17R
ASHLAND        CLOUDY    27  22  81 NW5       30.16R WCI  22
HAYWARD        CLOUDY    26  21  81 CALM      30.15R
SIREN          CLOUDY    28  22  76 CALM      30.16R
CUMBERLAND     CLOUDY    28  21  74 CALM      30.14S
RICE LAKE      CLOUDY    28  23  81 CALM      30.16S
CHETEK         CLOUDY    28  22  80 CALM      30.16R
LADYSMITH      CLOUDY    26  22  83 CALM      30.16R
EAU CLAIRE     NOT AVBL
MENOMONIE      CLOUDY    29  25  86 CALM      30.17R
NEW RICHMOND   CLOUDY    29  22  75 CALM      30.16S
OSCEOLA        CLOUDY    31  23  73 CALM      30.19R
$$

WIZ003>005-009-010-017-018-271700-
NORTH CENTRAL WISCONSIN

CITY           SKY/WX    TMP DP  RH WIND       PRES   REMARKS
MANITOWISH WTR CLOUDY    20  19  98 S3        30.11R FOG
ARBOR VITAE    CLOUDY    22  20  92 CALM      30.12R
WOODRUFF       CLOUDY    22  20  92 CALM      30.12R
RHINELANDER    CLOUDY    21  19  92 SE3       30.13R
EAGLE RIVER    CLOUDY    21  17  86 CALM      30.12R
LAND O LAKES   FLURRIES  22  19  89 CALM      30.12R
PHILLIPS       CLOUDY    21  19  94 SE3       30.12R FOG
TOMAHAWK       CLOUDY    22  20  91 CALM      30.13S FOG
MEDFORD        CLOUDY    21  20  94 CALM      30.13R FOG
MERRILL        CLOUDY    23  22  96 SE3       30.14R FOG
$$

WIZ029-030-035-036-043>047-271700-
CENTRAL WISCONSIN

CITY           SKY/WX    TMP DP  RH WIND       PRES   REMARKS
WAUSAU         CLOUDY    22  20  92 SE5       30.15R FOG     WCI  16
MOSINEE        LGT SNOW  21  21 100 E3        30.16R
MARSHFIELD     CLOUDY    24  20  84 E5        30.15R FOG     WCI  18
STEVENS POINT  CLOUDY    21  19  93 E7        30.16R FOG     WCI  12
WAUPACA        CLOUDY    26  21  81 E3        30.18R
WAUTOMA        CLOUDY    25  23  93 NE6       30.18R FOG     WCI  18
WISC RAPIDS    CLOUDY    24  21  88 E7        30.18R FOG     WCI  16
CAMP DOUGLAS   NOT AVBL
$$

WIZ011>013-019>022-031-037>040-048>050-271700-
NORTHEAST WISCONSIN

CITY           SKY/WX    TMP DP  RH WIND       PRES   REMARKS
ANTIGO         LGT SNOW  20  19  96 SE6       30.14R WCI  12
SHAWANO        CLOUDY    25  20  82 CALM      30.20R
OCONTO         SUNNY     25  17  72 MISG      30.20R
STURGEON BAY   CLOUDY    23  16  74 NE6       30.20S WCI  16
GREEN BAY      CLOUDY    24  16  71 NE12      30.20R WCI  13
MANITOWOC      PTSUNNY   27  18  69 N5        30.18R WCI  21
APPLETON       CLOUDY    25  18  74 E7        30.18R WCI  17
CLINTONVILLE   CLOUDY    25  19  80 E3        30.18R
OSHKOSH        CLOUDY    25  17  72 NE5       30.18R WCI  19
$$

WIZ032>034-041-042-053>061-271700-
SOUTHWEST WISCONSIN

CITY           SKY/WX    TMP DP  RH WIND       PRES   REMARKS
LA CROSSE      CLOUDY    30  21  69 NE8       30.18R WCI  22
SPARTA         CLOUDY    27  25  92 CALM      30.18R
VIROQUA        CLOUDY    26  23  89 N8        30.13S WCI  17
BOSCOBEL       CLOUDY    29  21  72 NE5       30.18R WCI  24
PRAIRIE DU CHI CLOUDY    30  20  67 NE5       30.18R WCI  25
PLATTEVILLE    CLOUDY    27  23  85 N9        30.15R WCI  18
$$

WIZ056-057-062-063-064-067-068-271700-
SOUTH CENTRAL WISCONSIN

CITY           SKY/WX    TMP DP  RH WIND       PRES   REMARKS
REEDSBURG      CLOUDY    24  22  89 CALM      30.15R
BARABOO/DELLS  CLOUDY    24  22  90 NE3       30.16R FOG
LONE ROCK      CLOUDY    27  21  78 NE6       30.17R WCI  20
MINERAL POINT  CLOUDY    28  23  80 NE6       30.13R WCI  22
MADISON        FOG       26  23  88 NE7       30.16R VSB 1   WCI  18
MIDDLETON      CLOUDY    27  26  94 NE7       30.16R WCI  20
WATERTOWN      CLOUDY    26  23  87 E7        30.15R WCI  19
MONROE         CLOUDY    27  27 100 N6        30.13R FOG     WCI  20
JANESVILLE     FOG       28  27  93 CALM      30.15R VSB 1
$$

WIZ051-052-058>065-066-070>072-271700-
SOUTHEAST WISCONSIN

CITY           SKY/WX    TMP DP  RH WIND       PRES   REMARKS
MILWAUKEE      PTSUNNY   28  16  60 NE9       30.17R WCI  19
WAUKESHA       NOT AVBL
MILWAUKEE/TIMM CLOUDY    28  16  59 NE8       30.15S WCI  20
RACINE         PTSUNNY   29  18  63 NE8       30.18R WCI  21
BURLINGTON     CLOUDY    26  20  78 E7        30.15R WCI  19
KENOSHA        CLOUDY    29  20  69 NE9       30.15R WCI  20
FOND DU LAC    CLOUDY    26  16  65 E6        30.18R WCI  19
SHEBOYGAN      PTSUNNY   27  17  66 E9        30.18R WCI  18
WEST BEND      CLOUDY    27  16  63 NE9       30.16R WCI  17
JUNEAU         CLOUDY    25  20  80 E8        30.16R WCI  16
$$

LSZ147-162-271700-
LAKE SUPERIOR

STATION/POSITION TIME  TEMP    WIND        PRES    WAVE
                       AIR SEA DIR/SP/G            HT/PER
                 (UTC) (F)     (DEG/KT/KT) (MB)    (FT/S)
DEVILS ISLAND    1500   29     110/  5/  6 1022.0R
PORT WING        1540   28     220/  2/  4 1021.7R
SAXON HARBOR     1500   26        CALM     1021.0R
$$

LMZ867-665-643>646-271700-
LAKE MICHIGAN

STATION/POSITION TIME  TEMP    WIND        PRES    WAVE
                       AIR SEA DIR/SP/G            HT/PER
                 (UTC) (F)     (DEG/KT/KT) (MB)    (FT/S)
NORTHPORT PIER   1526   24      80/  8/ 10 1022.4R
SISTER BAY       1513   28      20/  7/  9   N/A
KEWAUNEE LAKESHO 1500   26      50/ 10/ 13 1020.8R
SHEBOYGAN LAKESH 1500   26      50/ 10/ 13 1022.6R
PORT WASHINGTON  1540   29      60/  9/ 12 1022.7R
MILWAUKEE LAKESH 1500   28      50/ 11/ 14   N/A
KENOSHA   LAKESH 1500   28      40/ 12/ 14 1020.7R
$$

TC  - TEMPERATURE IN CELSIUS
VSB - VISIBILITY IN STATUTE MILES
WCI - WIND CHILL INDEX
HX  - HEAT INDEX




USA.gov is the U.S. government's official web portal to all federal, state and local government web resources and services.